Location: Bourguignon
(49.5441°N, 3.1585°E)
Time: 11:34:29
(UTC+00:00)

Cosmos 1470 - Pass Details

Date: 15 May 2026
Orbit: 420 x 431 km, 82.5° (Epoch: 9 June)

Event Time Altitude Azimuth Distance (km) Brightness Sun altitude
Rises 22:46:27 0° 348° (NNW) 2,388 7.7 -20.2°
Reaches altitude 10° 22:48:30 10° 348° (NNW) 1,516 6.3 -20.3°
Enters shadow 22:51:41 76° 289° (WNW) 440 2.3 -20.4°
